| time (UTC) | temp F | wind direction | speed MPH | gust MPH | rain 1hr in | rain 24hr in | rain mn in | humidity % | barometer mb |
| 20260510173553 | 91 | 53 | 1.0 | 0.0 | 0.00 | 0.00 | 0.00 | 6 | 1007.1 |
| 20260510173026 | 94 | 228 | 1.0 | 0.0 | 0.00 | 0.00 | 0.00 | 6 | 1006.7 |
| 20260510172506 | 93 | 257 | 1.0 | 0.0 | 0.00 | 0.00 | 0.00 | 7 | 1007.0 |
| 20260510172052 | 93 | 280 | 1.0 | 0.0 | 0.00 | 0.00 | 0.00 | 7 | 1007.0 |
| 20260510171528 | 92 | 251 | 1.0 | 0.0 | 0.00 | 0.00 | 0.00 | 7 | 1007.0 |
| 20260510171005 | 92 | 275 | 1.0 | 0.0 | 0.00 | 0.00 | 0.00 | 7 | 1007.0 |
| 20260510170548 | 93 | 252 | 1.0 | 0.0 | 0.00 | 0.00 | 0.00 | 7 | 1006.8 |
| 20260510170024 | 92 | 205 | 1.0 | 0.0 | 0.00 | 0.00 | 0.00 | 7 | 1006.9 |
| 20260510165606 | 92 | 269 | 1.0 | 0.0 | 0.00 | 0.00 | 0.00 | 8 | 1006.6 |
| 20260510165042 | 92 | 178 | 1.0 | 0.0 | 0.00 | 0.00 | 0.00 | 7 | 1006.6 |
| 20260510164525 | 91 | 213 | 1.0 | 0.0 | 0.00 | 0.00 | 0.00 | 7 | 1006.6 |
| 20260510164059 | 90 | 250 | 1.0 | 0.0 | 0.00 | 0.00 | 0.00 | 7 | 1006.8 |
| 20260510163538 | 89 | 207 | 1.0 | 0.0 | 0.00 | 0.00 | 0.00 | 7 | 1006.8 |
| 20260510163015 | 91 | 207 | 1.0 | 0.0 | 0.00 | 0.00 | 0.00 | 7 | 1006.6 |
| 20260510162555 | 90 | 169 | 1.0 | 0.0 | 0.00 | 0.00 | 0.00 | 7 | 1006.5 |
| 20260510162031 | 89 | 217 | 1.0 | 0.0 | 0.00 | 0.00 | 0.00 | 7 | 1006.7 |
| 20260510161508 | 88 | 225 | 1.0 | 0.0 | 0.00 | 0.00 | 0.00 | 7 | 1006.8 |
| 20260510161053 | 89 | 222 | 1.0 | 0.0 | 0.00 | 0.00 | 0.00 | 7 | 1006.7 |
| 20260510160528 | 88 | 252 | 1.0 | 0.0 | 0.00 | 0.00 | 0.00 | 7 | 1006.7 |
| 20260510160006 | 88 | 287 | 1.0 | 0.0 | 0.00 | 0.00 | 0.00 | 9 | 1006.7 |
| 20260510155545 | 87 | 360 | 1.0 | 0.0 | 0.00 | 0.00 | 0.00 | 8 | 1006.7 |
| 20260510155022 | 87 | 360 | 1.0 | 0.0 | 0.00 | 0.00 | 0.00 | 8 | 1006.7 |
| 20260510154605 | 87 | 360 | 2.0 | 0.0 | 0.00 | 0.00 | 0.00 | 8 | 1006.7 |
| 20260510154042 | 86 | 360 | 2.0 | 0.0 | 0.00 | 0.00 | 0.00 | 8 | 1006.8 |
| 20260510153520 | 85 | 360 | 3.0 | 0.0 | 0.00 | 0.00 | 0.00 | 8 | 1006.8 |
| 20260510153103 | 85 | 360 | 4.0 | 0.0 | 0.00 | 0.00 | 0.00 | 8 | 1006.8 |
| 20260510152538 | 84 | 360 | 5.0 | 0.0 | 0.00 | 0.00 | 0.00 | 9 | 1006.8 |
| 20260510152016 | 84 | 360 | 5.0 | 0.0 | 0.00 | 0.00 | 0.00 | 9 | 1006.8 |
| 20260510151556 | 83 | 360 | 6.0 | 0.0 | 0.00 | 0.00 | 0.00 | 9 | 1006.9 |
| 20260510151031 | 83 | 360 | 6.0 | 0.0 | 0.00 | 0.00 | 0.00 | 9 | 1006.9 |
| 20260510150509 | 83 | 360 | 5.0 | 0.0 | 0.00 | 0.00 | 0.00 | 9 | 1006.9 |
| 20260510150119 | 83 | 360 | 5.0 | 0.0 | 0.00 | 0.00 | 0.00 | 9 | 1006.9 |
| 20260510145534 | 82 | 360 | 5.0 | 0.0 | 0.00 | 0.00 | 0.00 | 9 | 1006.5 |
| 20260510145011 | 82 | 360 | 5.0 | 0.0 | 0.00 | 0.00 | 0.00 | 9 | 1006.5 |
| 20260510144554 | 82 | 360 | 5.0 | 0.0 | 0.00 | 0.00 | 0.00 | 10 | 1006.6 |
| 20260510144039 | 81 | 360 | 3.0 | 0.0 | 0.00 | 0.00 | 0.00 | 10 | 1006.5 |
| 20260510143515 | 80 | 360 | 2.0 | 0.0 | 0.00 | 0.00 | 0.00 | 11 | 1006.4 |
| 20260510143102 | 79 | 360 | 3.0 | 0.0 | 0.00 | 0.00 | 0.00 | 12 | 1006.6 |
| 20260510142534 | 78 | 360 | 3.0 | 0.0 | 0.00 | 0.00 | 0.00 | 12 | 1006.6 |
| 20260510142018 | 75 | 360 | 1.0 | 0.0 | 0.00 | 0.00 | 0.00 | 14 | 1006.7 |
| 20260510141553 | 75 | 360 | 1.0 | 0.0 | 0.00 | 0.00 | 0.00 | 14 | 1006.7 |
| 20260510141031 | 75 | 360 | 2.0 | 0.0 | 0.00 | 0.00 | 0.00 | 15 | 1006.7 |
| 20260510140506 | 74 | 360 | 2.0 | 0.0 | 0.00 | 0.00 | 0.00 | 15 | 1006.6 |
| 20260510140049 | 74 | 360 | 2.0 | 0.0 | 0.00 | 0.00 | 0.00 | 15 | 1006.7 |
| 20260510135526 | 72 | 360 | 2.0 | 0.0 | 0.00 | 0.00 | 0.00 | 15 | 1006.1 |
| 20260510135105 | 71 | 360 | 2.0 | 0.0 | 0.00 | 0.00 | 0.00 | 16 | 1006.2 |
| 20260510134550 | 70 | 360 | 2.0 | 0.0 | 0.00 | 0.00 | 0.00 | 17 | 1006.2 |
| 20260510134025 | 69 | 360 | 1.0 | 0.0 | 0.00 | 0.00 | 0.00 | 17 | 1006.3 |
| 20260510133501 | 68 | 360 | 2.0 | 0.0 | 0.00 | 0.00 | 0.00 | 16 | 1006.2 |
| 20260510133046 | 69 | 360 | 3.0 | 0.0 | 0.00 | 0.00 | 0.00 | 16 | 1006.0 |
| 20260510132529 | 68 | 360 | 2.0 | 0.0 | 0.00 | 0.00 | 0.00 | 16 | 1006.1 |
| 20260510132005 | 70 | 360 | 1.0 | 0.0 | 0.00 | 0.00 | 0.00 | 16 | 1005.9 |
| 20260510131547 | 69 | 360 | 1.0 | 0.0 | 0.00 | 0.00 | 0.00 | 15 | 1005.8 |
| 20260510131029 | 70 | 360 | 1.0 | 0.0 | 0.00 | 0.00 | 0.00 | 15 | 1005.5 |
| 20260510130505 | 69 | 360 | 0.0 | 0.0 | 0.00 | 0.00 | 0.00 | 15 | 1005.6 |
| 20260510130047 | 69 | 360 | 0.0 | 0.0 | 0.00 | 0.00 | 0.00 | 15 | 1005.6 |
| 20260510125523 | 69 | 360 | 0.0 | 0.0 | 0.00 | 0.00 | 0.00 | 14 | 1005.5 |
| 20260510125002 | 69 | 360 | 0.0 | 0.0 | 0.00 | 0.00 | 0.00 | 14 | 1005.3 |
| 20260510124543 | 69 | 360 | 0.0 | 0.0 | 0.00 | 0.00 | 0.00 | 15 | 1005.1 |
| 20260510124023 | 69 | 360 | 0.0 | 0.0 | 0.00 | 0.00 | 0.00 | 14 | 1005.1 |
| 20260510123504 | 70 | 360 | 0.0 | 0.0 | 0.00 | 0.00 | 0.00 | 14 | 1005.0 |
| 20260510123048 | 71 | 360 | 0.0 | 0.0 | 0.00 | 0.00 | 0.00 | 13 | 1004.9 |
| 20260510122528 | 71 | 360 | 1.0 | 0.0 | 0.00 | 0.00 | 0.00 | 14 | 1004.8 |
| 20260510122007 | 71 | 360 | 1.0 | 0.0 | 0.00 | 0.00 | 0.00 | 14 | 1004.7 |
| 20260510121554 | 72 | 360 | 1.0 | 0.0 | 0.00 | 0.00 | 0.00 | 13 | 1004.6 |
| 20260510121033 | 70 | 360 | 0.0 | 0.0 | 0.00 | 0.00 | 0.00 | 15 | 1004.5 |
| 20260510120513 | 70 | 360 | 0.0 | 0.0 | 0.00 | 0.00 | 0.00 | 14 | 1004.5 |
| 20260510120058 | 71 | 360 | 1.0 | 0.0 | 0.00 | 0.00 | 0.00 | 14 | 1004.4 |
| 20260510115539 | 72 | 360 | 1.0 | 0.0 | 0.00 | 0.00 | 0.00 | 14 | 1004.3 |
| 20260510115020 | 71 | 360 | 1.0 | 0.0 | 0.00 | 0.00 | 0.00 | 15 | 1004.3 |
| 20260510114601 | 71 | 360 | 1.0 | 0.0 | 0.00 | 0.00 | 0.00 | 14 | 1004.2 |
| 20260510114045 | 71 | 360 | 1.0 | 0.0 | 0.00 | 0.00 | 0.00 | 14 | 1004.2 |
| 20260510113523 | 72 | 360 | 2.0 | 0.0 | 0.00 | 0.00 | 0.00 | 14 | 1004.2 |
| 20260510113005 | 73 | 360 | 1.0 | 0.0 | 0.00 | 0.00 | 0.00 | 14 | 1004.1 |
| 20260510112554 | 72 | 360 | 1.0 | 0.0 | 0.00 | 0.00 | 0.00 | 14 | 1004.1 |
| 20260510112031 | 71 | 360 | 1.0 | 0.0 | 0.00 | 0.00 | 0.00 | 15 | 1004.0 |
| 20260510111509 | 72 | 360 | 1.0 | 0.0 | 0.00 | 0.00 | 0.00 | 15 | 1004.0 |
| 20260510111050 | 72 | 360 | 1.0 | 0.0 | 0.00 | 0.00 | 0.00 | 15 | 1003.9 |
| 20260510110527 | 73 | 360 | 0.0 | 0.0 | 0.00 | 0.00 | 0.00 | 13 | 1003.8 |
| 20260510110004 | 74 | 360 | 1.0 | 0.0 | 0.00 | 0.00 | 0.00 | 14 | 1003.8 |
| 20260510105551 | 75 | 360 | 1.0 | 0.0 | 0.00 | 0.00 | 0.00 | 13 | 1003.6 |
| 20260510105029 | 75 | 360 | 2.0 | 0.0 | 0.00 | 0.00 | 0.00 | 13 | 1003.5 |
| 20260510104506 | 74 | 360 | 2.0 | 0.0 | 0.00 | 0.00 | 0.00 | 13 | 1003.5 |
| 20260510104057 | 75 | 360 | 2.0 | 0.0 | 0.00 | 0.00 | 0.00 | 12 | 1003.4 |
| 20260510103544 | 75 | 360 | 2.0 | 0.0 | 0.00 | 0.00 | 0.00 | 13 | 1003.3 |
| 20260510103018 | 74 | 360 | 2.0 | 0.0 | 0.00 | 0.00 | 0.00 | 13 | 1003.4 |
| 20260510102601 | 75 | 360 | 1.0 | 0.0 | 0.00 | 0.00 | 0.00 | 13 | 1003.3 |
| 20260510102047 | 75 | 360 | 1.0 | 0.0 | 0.00 | 0.00 | 0.00 | 13 | 1003.2 |
| 20260510101521 | 76 | 360 | 0.0 | 0.0 | 0.00 | 0.00 | 0.00 | 13 | 1003.1 |
| 20260510101107 | 76 | 360 | 1.0 | 0.0 | 0.00 | 0.00 | 0.00 | 13 | 1003.1 |
| 20260510100543 | 76 | 360 | 2.0 | 0.0 | 0.00 | 0.00 | 0.00 | 13 | 1002.9 |
| 20260510100022 | 75 | 360 | 2.0 | 0.0 | 0.00 | 0.00 | 0.00 | 13 | 1002.9 |
| 20260510095605 | 75 | 360 | 3.0 | 0.0 | 0.00 | 0.00 | 0.00 | 13 | 1002.8 |
| 20260510095041 | 77 | 360 | 3.0 | 0.0 | 0.00 | 0.00 | 0.00 | 13 | 1002.5 |
| 20260510094535 | 79 | 360 | 2.0 | 0.0 | 0.00 | 0.00 | 0.00 | 11 | 1002.6 |
| 20260510094104 | 78 | 360 | 2.0 | 0.0 | 0.00 | 0.00 | 0.00 | 11 | 1002.6 |
| 20260510093545 | 77 | 360 | 1.0 | 0.0 | 0.00 | 0.00 | 0.00 | 11 | 1002.7 |
| 20260510093027 | 78 | 360 | 1.0 | 0.0 | 0.00 | 0.00 | 0.00 | 10 | 1002.5 |
| 20260510092505 | 79 | 360 | 2.0 | 0.0 | 0.00 | 0.00 | 0.00 | 10 | 1002.1 |
| 20260510092053 | 78 | 360 | 2.0 | 0.0 | 0.00 | 0.00 | 0.00 | 11 | 1002.3 |
| 20260510091542 | 78 | 360 | 1.0 | 0.0 | 0.00 | 0.00 | 0.00 | 11 | 1002.1 |
| 20260510091019 | 79 | 360 | 1.0 | 0.0 | 0.00 | 0.00 | 0.00 | 10 | 1002.2 |
| 20260510090605 | 79 | 360 | 1.0 | 0.0 | 0.00 | 0.00 | 0.00 | 11 | 1001.9 |
| 20260510090044 | 80 | 360 | 1.0 | 0.0 | 0.00 | 0.00 | 0.00 | 10 | 1001.9 |
| 20260510085526 | 80 | 360 | 1.0 | 0.0 | 0.00 | 0.00 | 0.00 | 10 | 1001.9 |
| 20260510085008 | 80 | 360 | 1.0 | 0.0 | 0.00 | 0.00 | 0.00 | 11 | 1002.0 |
| 20260510084551 | 80 | 360 | 1.0 | 0.0 | 0.00 | 0.00 | 0.00 | 11 | 1001.9 |
| 20260510084031 | 80 | 360 | 0.0 | 0.0 | 0.00 | 0.00 | 0.00 | 10 | 1002.0 |
| 20260510083509 | 79 | 360 | 0.0 | 0.0 | 0.00 | 0.00 | 0.00 | 12 | 1002.1 |
| 20260510083105 | 79 | 360 | 1.0 | 0.0 | 0.00 | 0.00 | 0.00 | 12 | 1002.0 |
| 20260510082533 | 80 | 360 | 1.0 | 0.0 | 0.00 | 0.00 | 0.00 | 11 | 1001.7 |
| 20260510082017 | 79 | 360 | 1.0 | 0.0 | 0.00 | 0.00 | 0.00 | 11 | 1001.6 |
| 20260510081554 | 79 | 360 | 3.0 | 0.0 | 0.00 | 0.00 | 0.00 | 11 | 1001.7 |
| 20260510081033 | 79 | 360 | 3.0 | 0.0 | 0.00 | 0.00 | 0.00 | 11 | 1001.6 |
| 20260510080515 | 80 | 360 | 3.0 | 0.0 | 0.00 | 0.00 | 0.00 | 11 | 1001.6 |
| 20260510080057 | 79 | 360 | 2.0 | 0.0 | 0.00 | 0.00 | 0.00 | 12 | 1001.8 |
| 20260510075533 | 78 | 360 | 1.0 | 0.0 | 0.00 | 0.00 | 0.00 | 13 | 1002.1 |
| 20260510075007 | 78 | 360 | 3.0 | 0.0 | 0.00 | 0.00 | 0.00 | 12 | 1001.9 |
| 20260510074549 | 80 | 360 | 3.0 | 0.0 | 0.00 | 0.00 | 0.00 | 12 | 1001.7 |
| 20260510074029 | 80 | 360 | 2.0 | 0.0 | 0.00 | 0.00 | 0.00 | 11 | 1001.9 |
| 20260510073506 | 80 | 360 | 2.0 | 0.0 | 0.00 | 0.00 | 0.00 | 11 | 1001.8 |
| 20260510073054 | 81 | 360 | 2.0 | 0.0 | 0.00 | 0.00 | 0.00 | 10 | 1001.8 |
| 20260510072526 | 81 | 360 | 2.0 | 0.0 | 0.00 | 0.00 | 0.00 | 10 | 1001.6 |
| 20260510072004 | 82 | 360 | 1.0 | 0.0 | 0.00 | 0.00 | 0.00 | 10 | 1001.4 |
| 20260510071548 | 82 | 360 | 1.0 | 0.0 | 0.00 | 0.00 | 0.00 | 11 | 1001.6 |
| 20260510071025 | 82 | 360 | 1.0 | 0.0 | 0.00 | 0.00 | 0.00 | 11 | 1001.6 |
| 20260510070509 | 81 | 360 | 1.0 | 0.0 | 0.00 | 0.00 | 0.00 | 11 | 1001.5 |
| 20260510070049 | 82 | 360 | 2.0 | 0.0 | 0.00 | 0.00 | 0.00 | 11 | 1001.5 |
| 20260510065528 | 81 | 360 | 2.0 | 0.0 | 0.00 | 0.00 | 0.00 | 11 | 1001.4 |
| 20260510065008 | 81 | 360 | 2.0 | 0.0 | 0.00 | 0.00 | 0.00 | 11 | 1001.5 |
| 20260510064605 | 81 | 360 | 2.0 | 0.0 | 0.00 | 0.00 | 0.00 | 12 | 1001.4 |
| 20260510064038 | 80 | 360 | 1.0 | 0.0 | 0.00 | 0.00 | 0.00 | 12 | 1001.4 |
| 20260510063521 | 80 | 360 | 1.0 | 0.0 | 0.00 | 0.00 | 0.00 | 12 | 1001.4 |
| 20260510062542 | 80 | 360 | 2.0 | 0.0 | 0.00 | 0.00 | 0.00 | 12 | 1001.2 |
| 20260510062021 | 80 | 360 | 2.0 | 0.0 | 0.00 | 0.00 | 0.00 | 12 | 1001.3 |
| 20260510061508 | 81 | 360 | 3.0 | 0.0 | 0.00 | 0.00 | 0.00 | 11 | 1001.1 |
| 20260510061050 | 81 | 360 | 4.0 | 0.0 | 0.00 | 0.00 | 0.00 | 11 | 1000.9 |
| 20260510060532 | 82 | 360 | 5.0 | 0.0 | 0.00 | 0.00 | 0.00 | 11 | 1000.9 |
| 20260510060032 | 82 | 360 | 5.0 | 0.0 | 0.00 | 0.00 | 0.00 | 11 | 1000.9 |
| 20260510055605 | 81 | 360 | 5.0 | 0.0 | 0.00 | 0.00 | 0.00 | 11 | 1001.1 |
| 20260510055047 | 82 | 360 | 5.0 | 0.0 | 0.00 | 0.00 | 0.00 | 11 | 1001.1 |
| 20260510054536 | 81 | 360 | 5.0 | 0.0 | 0.00 | 0.00 | 0.00 | 11 | 1001.0 |
| 20260510054014 | 80 | 360 | 4.0 | 0.0 | 0.00 | 0.00 | 0.00 | 12 | 1001.2 |
| 20260510053553 | 80 | 360 | 3.0 | 0.0 | 0.00 | 0.00 | 0.00 | 11 | 1000.9 |
| 20260510053036 | 82 | 360 | 3.0 | 0.0 | 0.00 | 0.00 | 0.00 | 11 | 1000.7 |
| 20260510052516 | 84 | 360 | 2.0 | 0.0 | 0.00 | 0.00 | 0.00 | 12 | 1000.8 |
| 20260510052100 | 83 | 360 | 2.0 | 0.0 | 0.00 | 0.00 | 0.00 | 12 | 1000.7 |
| 20260510051547 | 83 | 360 | 2.0 | 0.0 | 0.00 | 0.00 | 0.00 | 11 | 1000.7 |
| 20260510051023 | 85 | 360 | 1.0 | 0.0 | 0.00 | 0.00 | 0.00 | 10 | 1000.5 |
| 20260510050502 | 86 | 360 | 1.0 | 0.0 | 0.00 | 0.00 | 0.00 | 11 | 1000.5 |
| 20260510050045 | 86 | 360 | 2.0 | 0.0 | 0.00 | 0.00 | 0.00 | 11 | 1000.3 |
| 20260510045528 | 86 | 360 | 2.0 | 0.0 | 0.00 | 0.00 | 0.00 | 11 | 1000.4 |
| 20260510045008 | 85 | 360 | 2.0 | 0.0 | 0.00 | 0.00 | 0.00 | 11 | 1000.5 |
| 20260510044606 | 85 | 360 | 1.0 | 0.0 | 0.00 | 0.00 | 0.00 | 11 | 1000.5 |
| 20260510044036 | 85 | 360 | 2.0 | 0.0 | 0.00 | 0.00 | 0.00 | 10 | 1000.3 |
| 20260510043522 | 85 | 360 | 2.0 | 0.0 | 0.00 | 0.00 | 0.00 | 10 | 1000.2 |
| 20260510043002 | 85 | 360 | 2.0 | 0.0 | 0.00 | 0.00 | 0.00 | 10 | 1000.1 |
| 20260510042553 | 86 | 360 | 1.0 | 0.0 | 0.00 | 0.00 | 0.00 | 10 | 1000.1 |
| 20260510042034 | 85 | 360 | 1.0 | 0.0 | 0.00 | 0.00 | 0.00 | 10 | 1000.0 |
| 20260510041519 | 86 | 360 | 1.0 | 0.0 | 0.00 | 0.00 | 0.00 | 10 | 1000.0 |
| 20260510041102 | 86 | 360 | 1.0 | 0.0 | 0.00 | 0.00 | 0.00 | 10 | 999.9 |
| 20260510040542 | 86 | 360 | 1.0 | 0.0 | 0.00 | 0.00 | 0.00 | 10 | 999.8 |
| 20260510040021 | 87 | 360 | 1.0 | 0.0 | 0.00 | 0.00 | 0.00 | 9 | 999.8 |
| 20260510035603 | 88 | 360 | 2.0 | 0.0 | 0.00 | 0.00 | 0.00 | 9 | 999.7 |
| 20260510035049 | 89 | 360 | 2.0 | 0.0 | 0.00 | 0.00 | 0.00 | 9 | 999.6 |
| 20260510034530 | 90 | 360 | 3.0 | 0.0 | 0.00 | 0.00 | 0.00 | 9 | 999.6 |
| 20260510034013 | 90 | 360 | 3.0 | 0.0 | 0.00 | 0.00 | 0.00 | 9 | 999.6 |
| 20260510033600 | 89 | 90 | 3.0 | 0.0 | 0.00 | 0.00 | 0.00 | 9 | 999.5 |
| 20260510033041 | 89 | 360 | 2.0 | 0.0 | 0.00 | 0.00 | 0.00 | 9 | 999.5 |
| 20260510032523 | 89 | 78 | 2.0 | 0.0 | 0.00 | 0.00 | 0.00 | 9 | 999.3 |
| 20260510032002 | 90 | 64 | 1.0 | 0.0 | 0.00 | 0.00 | 0.00 | 9 | 999.2 |
| 20260510031549 | 91 | 92 | 1.0 | 0.0 | 0.00 | 0.00 | 0.00 | 8 | 999.1 |
| 20260510031027 | 91 | 103 | 1.0 | 0.0 | 0.00 | 0.00 | 0.00 | 8 | 999.1 |
| 20260510030508 | 91 | 105 | 2.0 | 0.0 | 0.00 | 0.00 | 0.00 | 8 | 999.0 |
| 20260510025538 | 90 | 99 | 2.0 | 0.0 | 0.00 | 0.00 | 0.00 | 9 | 999.1 |
| 20260510025020 | 91 | 103 | 1.0 | 0.0 | 0.00 | 0.00 | 0.00 | 8 | 999.1 |
| 20260510024502 | 91 | 109 | 2.0 | 0.0 | 0.00 | 0.00 | 0.00 | 8 | 999.0 |
| 20260510024042 | 92 | 360 | 2.0 | 0.0 | 0.00 | 0.00 | 0.00 | 8 | 999.0 |
| 20260510023525 | 93 | 360 | 3.0 | 0.0 | 0.00 | 0.00 | 0.00 | 8 | 998.7 |
| 20260510023007 | 94 | 360 | 3.0 | 0.0 | 0.00 | 0.00 | 0.00 | 8 | 998.7 |
| 20260510022554 | 94 | 360 | 3.0 | 0.0 | 0.00 | 0.00 | 0.00 | 8 | 998.7 |
| 20260510022037 | 95 | 82 | 2.0 | 0.0 | 0.00 | 0.00 | 0.00 | 7 | 998.5 |
| 20260510021520 | 95 | 101 | 1.0 | 0.0 | 0.00 | 0.00 | 0.00 | 7 | 998.4 |
| 20260510021101 | 95 | 5 | 1.0 | 0.0 | 0.00 | 0.00 | 0.00 | 7 | 998.3 |
| 20260510020546 | 96 | 16 | 0.0 | 0.0 | 0.00 | 0.00 | 0.00 | 7 | 998.3 |
| 20260510020028 | 97 | 209 | 1.0 | 0.0 | 0.00 | 0.00 | 0.00 | 8 | 998.1 |
| 20260510015508 | 97 | 157 | 1.0 | 0.0 | 0.00 | 0.00 | 0.00 | 8 | 998.7 |
| 20260510015055 | 97 | 209 | 2.0 | 0.0 | 0.00 | 0.00 | 0.00 | 7 | 998.7 |
| 20260510014540 | 97 | 273 | 2.0 | 0.0 | 0.00 | 0.00 | 0.00 | 8 | 998.7 |
| 20260510014022 | 97 | 277 | 1.0 | 0.0 | 0.00 | 0.00 | 0.00 | 8 | 998.7 |
| 20260510013503 | 97 | 235 | 2.0 | 0.0 | 0.00 | 0.00 | 0.00 | 7 | 998.6 |
| 20260510013051 | 97 | 249 | 2.0 | 0.0 | 0.00 | 0.00 | 0.00 | 8 | 998.6 |
| 20260510012534 | 97 | 280 | 3.0 | 0.0 | 0.00 | 0.00 | 0.00 | 8 | 998.7 |
| 20260510012018 | 97 | 335 | 3.0 | 0.0 | 0.00 | 0.00 | 0.00 | 8 | 998.7 |
| 20260510011506 | 98 | 288 | 4.0 | 0.0 | 0.00 | 0.00 | 0.00 | 8 | 998.6 |
| 20260510011049 | 98 | 263 | 3.0 | 0.0 | 0.00 | 0.00 | 0.00 | 7 | 998.6 |
| 20260510010531 | 98 | 242 | 3.0 | 0.0 | 0.00 | 0.00 | 0.00 | 6 | 998.4 |
| 20260510010012 | 98 | 167 | 3.0 | 0.0 | 0.00 | 0.00 | 0.00 | 6 | 998.3 |
| 20260510005555 | 99 | 279 | 3.0 | 0.0 | 0.00 | 0.00 | 0.00 | 5 | 998.5 |
| 20260510005036 | 99 | 258 | 3.0 | 0.0 | 0.00 | 0.00 | 0.00 | 6 | 998.6 |
| 20260510004522 | 98 | 296 | 3.0 | 0.0 | 0.00 | 0.00 | 0.00 | 7 | 998.6 |
| 20260510004003 | 99 | 238 | 2.0 | 0.0 | 0.00 | 0.00 | 0.00 | 7 | 998.6 |
| 20260510003547 | 98 | 184 | 2.0 | 0.0 | 0.00 | 0.00 | 0.00 | 7 | 998.6 |
| 20260510003037 | 98 | 301 | 2.0 | 0.0 | 0.00 | 0.00 | 0.00 | 8 | 998.7 |
| 20260510002511 | 98 | 249 | 3.0 | 0.0 | 0.00 | 0.00 | 0.00 | 7 | 998.7 |
| 20260510002058 | 99 | 309 | 2.0 | 0.0 | 0.00 | 0.00 | 0.00 | 7 | 998.5 |
| 20260510001537 | 100 | 217 | 1.0 | 0.0 | 0.00 | 0.00 | 0.00 | 7 | 998.5 |
| 20260510001016 | 100 | 199 | 2.0 | 0.0 | 0.00 | 0.00 | 0.00 | 7 | 998.5 |
| 20260510000558 | 100 | 315 | 2.0 | 0.0 | 0.00 | 0.00 | 0.00 | 8 | 998.6 |
| 20260510000045 | 100 | 223 | 3.0 | 0.0 | 0.00 | 0.00 | 0.00 | 7 | 998.6 |
| 20260509235526 | 100 | 14 | 3.0 | 0.0 | 0.00 | 0.00 | 0.00 | 7 | 998.5 |
| 20260509235007 | 100 | 226 | 3.0 | 0.0 | 0.00 | 0.00 | 0.00 | 7 | 998.6 |
| 20260509234554 | 100 | 279 | 3.0 | 0.0 | 0.00 | 0.00 | 0.00 | 8 | 998.6 |
| 20260509234028 | 100 | 277 | 2.0 | 0.0 | 0.00 | 0.00 | 0.00 | 7 | 998.6 |
| 20260509233510 | 100 | 270 | 2.0 | 0.0 | 0.00 | 0.00 | 0.00 | 7 | 998.8 |
| 20260509233052 | 100 | 217 | 2.0 | 0.0 | 0.00 | 0.00 | 0.00 | 7 | 998.8 |
| 20260509232538 | 101 | 210 | 2.0 | 0.0 | 0.00 | 0.00 | 0.00 | 7 | 998.8 |
| 20260509232019 | 101 | 219 | 2.0 | 0.0 | 0.00 | 0.00 | 0.00 | 7 | 998.8 |
| 20260509231604 | 100 | 298 | 2.0 | 0.0 | 0.00 | 0.00 | 0.00 | 7 | 998.8 |
| 20260509231036 | 100 | 284 | 1.0 | 0.0 | 0.00 | 0.00 | 0.00 | 7 | 999.1 |
| 20260509230514 | 99 | 178 | 1.0 | 0.0 | 0.00 | 0.00 | 0.00 | 7 | 999.2 |
| 20260509230100 | 99 | 292 | 2.0 | 0.0 | 0.00 | 0.00 | 0.00 | 7 | 999.3 |
| 20260509225538 | 100 | 272 | 2.0 | 0.0 | 0.00 | 0.00 | 0.00 | 7 | 999.3 |
| 20260509225015 | 99 | 224 | 2.0 | 0.0 | 0.00 | 0.00 | 0.00 | 7 | 999.4 |
| 20260509224602 | 98 | 327 | 3.0 | 0.0 | 0.00 | 0.00 | 0.00 | 7 | 999.6 |
| 20260509224039 | 99 | 294 | 3.0 | 0.0 | 0.00 | 0.00 | 0.00 | 7 | 999.5 |
| 20260509223516 | 99 | 13 | 2.0 | 0.0 | 0.00 | 0.00 | 0.00 | 6 | 999.7 |
| 20260509223100 | 100 | 350 | 2.0 | 0.0 | 0.00 | 0.00 | 0.00 | 7 | 999.8 |
| 20260509222541 | 99 | 5 | 2.0 | 0.0 | 0.00 | 0.00 | 0.00 | 7 | 999.8 |
| 20260509222021 | 100 | 318 | 2.0 | 0.0 | 0.00 | 0.00 | 0.00 | 8 | 999.7 |
| 20260509221501 | 99 | 331 | 2.0 | 0.0 | 0.00 | 0.00 | 0.00 | 7 | 1000.1 |
| 20260509221045 | 100 | 355 | 2.0 | 0.0 | 0.00 | 0.00 | 0.00 | 7 | 1000.0 |
| 20260509220526 | 100 | 273 | 2.0 | 0.0 | 0.00 | 0.00 | 0.00 | 7 | 1000.0 |
| 20260509220110 | 101 | 253 | 2.0 | 0.0 | 0.00 | 0.00 | 0.00 | 6 | 1000.3 |
| 20260509215540 | 101 | 169 | 2.0 | 0.0 | 0.00 | 0.00 | 0.00 | 7 | 1000.3 |
| 20260509215021 | 100 | 30 | 1.0 | 0.0 | 0.00 | 0.00 | 0.00 | 7 | 1000.3 |
| 20260509214501 | 101 | 169 | 1.0 | 0.0 | 0.00 | 0.00 | 0.00 | 7 | 1000.4 |
| 20260509214044 | 101 | 221 | 2.0 | 0.0 | 0.00 | 0.00 | 0.00 | 7 | 1000.6 |
| 20260509213528 | 98 | 57 | 2.0 | 0.0 | 0.00 | 0.00 | 0.00 | 7 | 1000.8 |
| 20260509213006 | 98 | 268 | 1.0 | 0.0 | 0.00 | 0.00 | 0.00 | 7 | 1000.9 |
| 20260509212557 | 98 | 283 | 1.0 | 0.0 | 0.00 | 0.00 | 0.00 | 7 | 1001.1 |
| 20260509212039 | 100 | 267 | 2.0 | 0.0 | 0.00 | 0.00 | 0.00 | 6 | 1001.0 |
| 20260509211519 | 100 | 277 | 1.0 | 0.0 | 0.00 | 0.00 | 0.00 | 8 | 1001.0 |
| 20260509211101 | 99 | 224 | 1.0 | 0.0 | 0.00 | 0.00 | 0.00 | 7 | 1001.3 |
| 20260509210543 | 100 | 218 | 1.0 | 0.0 | 0.00 | 0.00 | 0.00 | 7 | 1001.3 |
| 20260509210021 | 100 | 297 | 1.0 | 0.0 | 0.00 | 0.00 | 0.00 | 7 | 1001.3 |
| 20260509205604 | 98 | 247 | 1.0 | 0.0 | 0.00 | 0.00 | 0.00 | 8 | 1001.4 |
| 20260509205039 | 99 | 90 | 1.0 | 0.0 | 0.00 | 0.00 | 0.00 | 7 | 1001.5 |
| 20260509204523 | 97 | 360 | 1.0 | 0.0 | 0.00 | 0.00 | 0.00 | 8 | 1001.7 |
| 20260509204001 | 98 | 40 | 1.0 | 0.0 | 0.00 | 0.00 | 0.00 | 8 | 1001.6 |
| 20260509203547 | 97 | 112 | 2.0 | 0.0 | 0.00 | 0.00 | 0.00 | 8 | 1001.8 |
| 20260509203038 | 98 | 113 | 1.0 | 0.0 | 0.00 | 0.00 | 0.00 | 7 | 1001.7 |
| 20260509202507 | 99 | 130 | 1.0 | 0.0 | 0.00 | 0.00 | 0.00 | 8 | 1001.8 |
| 20260509202050 | 99 | 94 | 2.0 | 0.0 | 0.00 | 0.00 | 0.00 | 8 | 1001.9 |
| 20260509201529 | 96 | 281 | 1.0 | 0.0 | 0.00 | 0.00 | 0.00 | 8 | 1002.0 |
| 20260509201010 | 99 | 355 | 0.0 | 0.0 | 0.00 | 0.00 | 0.00 | 8 | 1001.9 |
| 20260509200552 | 99 | 55 | 1.0 | 0.0 | 0.00 | 0.00 | 0.00 | 8 | 1002.0 |
| 20260509200029 | 97 | 244 | 1.0 | 0.0 | 0.00 | 0.00 | 0.00 | 8 | 1002.2 |
| 20260509195507 | 98 | 88 | 2.0 | 0.0 | 0.00 | 0.00 | 0.00 | 8 | 1002.0 |
| 20260509195052 | 98 | 100 | 2.0 | 0.0 | 0.00 | 0.00 | 0.00 | 8 | 1002.1 |
| 20260509194530 | 98 | 100 | 1.0 | 0.0 | 0.00 | 0.00 | 0.00 | 8 | 1002.2 |
| 20260509194006 | 98 | 184 | 1.0 | 0.0 | 0.00 | 0.00 | 0.00 | 8 | 1002.1 |
| 20260509193547 | 97 | 276 | 1.0 | 0.0 | 0.00 | 0.00 | 0.00 | 9 | 1002.3 |
| 20260509193028 | 97 | 167 | 2.0 | 0.0 | 0.00 | 0.00 | 0.00 | 8 | 1002.4 |
| 20260509192507 | 94 | 98 | 2.0 | 0.0 | 0.00 | 0.00 | 0.00 | 10 | 1002.6 |
| 20260509192053 | 96 | 87 | 1.0 | 0.0 | 0.00 | 0.00 | 0.00 | 8 | 1002.5 |
| 20260509191534 | 98 | 216 | 1.0 | 0.0 | 0.00 | 0.00 | 0.00 | 8 | 1002.6 |
| 20260509191016 | 97 | 227 | 1.0 | 0.0 | 0.00 | 0.00 | 0.00 | 9 | 1002.6 |
| 20260509190554 | 97 | 239 | 1.0 | 0.0 | 0.00 | 0.00 | 0.00 | 9 | 1002.6 |
| 20260509190032 | 95 | 331 | 1.0 | 0.0 | 0.00 | 0.00 | 0.00 | 8 | 1002.9 |
| 20260509185507 | 98 | 212 | 1.0 | 0.0 | 0.00 | 0.00 | 0.00 | 9 | 1002.8 |
| 20260509185054 | 97 | 177 | 2.0 | 0.0 | 0.00 | 0.00 | 0.00 | 8 | 1002.9 |
| 20260509184541 | 98 | 318 | 1.0 | 0.0 | 0.00 | 0.00 | 0.00 | 8 | 1002.9 |
| 20260509184008 | 98 | 34 | 1.0 | 0.0 | 0.00 | 0.00 | 0.00 | 9 | 1002.9 |
| 20260509183550 | 97 | 220 | 1.0 | 0.0 | 0.00 | 0.00 | 0.00 | 8 | 1003.0 |
| 20260509183031 | 96 | 322 | 1.0 | 0.0 | 0.00 | 0.00 | 0.00 | 8 | 1003.0 |
| 20260509182505 | 96 | 217 | 1.0 | 0.0 | 0.00 | 0.00 | 0.00 | 9 | 1003.3 |
| 20260509182047 | 96 | 223 | 1.0 | 0.0 | 0.00 | 0.00 | 0.00 | 8 | 1003.3 |
| 20260509181526 | 96 | 94 | 1.0 | 0.0 | 0.00 | 0.00 | 0.00 | 9 | 1003.3 |
| 20260509181001 | 93 | 49 | 1.0 | 0.0 | 0.00 | 0.00 | 0.00 | 9 | 1003.3 |
| 20260509180545 | 94 | 30 | 1.0 | 0.0 | 0.00 | 0.00 | 0.00 | 9 | 1003.5 |
| 20260509180023 | 93 | 317 | 1.0 | 0.0 | 0.00 | 0.00 | 0.00 | 9 | 1003.6 |
| 20260509175506 | 93 | 298 | 1.0 | 0.0 | 0.00 | 0.00 | 0.00 | 9 | 1003.6 |
| 20260509175048 | 92 | 130 | 1.0 | 0.0 | 0.00 | 0.00 | 0.00 | 9 | 1003.7 |
| 20260509174525 | 93 | 109 | 0.0 | 0.0 | 0.00 | 0.00 | 0.00 | 8 | 1003.5 |
| 20260509174005 | 94 | 191 | 0.0 | 0.0 | 0.00 | 0.00 | 0.00 | 8 | 1003.5 |